Regional Weather Roundup
Issued by NWS Sioux Falls, SD

Home | Current Version | Previous Version | Graphics & Text | Print | Product List | Glossary Off
Versions: 1 2 3 4 5 6 7 8 9 10 11 12 13 14 15 16 17 18 19 20 21 22 23 24 25 26 27 28 29 30 31 32 33 34 35 36 37 38 39 40 41 42 43 44 45 46 47 48 49 50

000
ASUS43 KFSD 191502
RWRFSD

WEATHER ROUNDUP FOR SE SOUTH DAKOTA/SW MINNESOTA/NW IOWA
NATIONAL WEATHER SERVICE SIOUX FALLS SD
900 AM CST MON FEB 19 2018

NOTE: "FAIR" INDICATES FEW OR NO CLOUDS BELOW 12,000 FEET WITH NO
SIGNIFICANT WEATHER AND OR OBSTRUCTIONS TO VISIBILITY.


SDZ038>040-050-052>070-191600-
SOUTHEAST SOUTH DAKOTA

CITY           SKY/WX    TMP DP  RH WIND       PRES   REMARKS
BROOKINGS      FLURRIES  10   6  84 N16G25    29.92R WCI  -7
CHAMBERLAIN    CLOUDY    10   6  82 NW22G29   30.00R FOG     WCI  -9
HURON          CLOUDY     9   4  80 N23G31    30.00F WCI -11
MADISON        LGT RAIN  10  10 100 NE23G30   29.89F WCI -10
MITCHELL       CLOUDY    12   8  84 N21       29.97F FOG     WCI  -7
SIOUX FALLS    LGT SNOW  15  10  80 N16G28    29.88F WCI  -1
WINNER         LGT SNOW  10   4  76 N20       29.99R WCI  -9
YANKTON        MIX PCPN  16  13  88 N15       29.90S FOG     WCI   1
$$

MNZ071-072-080-081-089-090-097-098-191600-
SOUTHWEST MINNESOTA

CITY           SKY/WX    TMP DP  RH WIND       PRES   REMARKS
FAIRMONT       MIX PCPN  20  17  88 MISG      29.82F FOG
JACKSON        CLOUDY    18  14  86 N22G28    29.83S FOG     WCI   0
LUVERNE        LGT SNOW  16  10  79 N13G22    29.87R WCI   2
MARSHALL       FLURRIES  14  10  84 N20       29.97R WCI  -3
MONTEVIDEO     LGT SNOW  16  10  79 NE18G25   29.99R WCI  -1
PIPESTONE      LGT SNOW  10   7  85 NE23G29   29.86S WCI -10
REDWOOD FALLS  CLOUDY    15  11  83 N13G25    29.93R WCI   1
TRACY          LGT SNOW  16  14  92 N22       29.91R WCI  -2
WINDOM         LGT SNOW  16   3  57 N21       29.85S WCI  -2
WORTHINGTON    LGT SNOW  15  12  88 MISG      29.83S FOG
$$

IAZ001>003-012>014-020>022-031-032-NEZ013-014-SDZ071-191600-
NORTHWEST IOWA

CITY           SKY/WX    TMP DP  RH WIND       PRES   REMARKS
CHEROKEE       CLOUDY    19  19  98 N12       29.80S FOG     WCI   7
DENISON        SUNNY     25  25 100 MISG      29.76F FOG
ESTHERVILLE    LGT SNOW  18  16  92 MISG      29.80S FOG
LE MARS        MOSUNNY   19  18  93 MISG      29.86R FOG
ORANGE CITY    CLOUDY    19  18  93 N12G22    29.82R WCI   7
SHELDON        LGT SNOW  18  16  93 MISG      29.80S
SIOUX CITY     CLOUDY    19  16  88 N18       29.85R WCI   4
SPENCER        LGT SNOW  19  15  84 MISG      29.80F VSB 1
STORM LAKE     CLOUDY    21  21 100 MISG      29.75S FOG
$$

ABBREVIATIONS USED IN REMARKS
   TC - TEMPERATURE IN CELSIUS
  WCI - WIND CHILL INDEX
   HX - HEAT INDEX
  VSB - VISIBILITY





USA.gov is the U.S. government's official web portal to all federal, state and local government web resources and services.